Time[GMT],gps_lat[degrees_north](-3m),gps_lon[degrees_west](-3m),gps_2_lat[degrees_north](-3m),gps_2_lon[degrees_west](-3m)
2006-12-15 06:00,43.180435181,-70.427101135,43.17,-70.42
2006-12-15 07:00,43.180549622,-70.427146912,43.17,-70.42
2006-12-15 08:00,43.180549622,-70.427169800,43.18,-70.43
2006-12-15 09:00,43.180564880,-70.427230835,43.18,-70.43
2006-12-15 10:00,43.180583954,-70.427169800,43.18,-70.43
2006-12-15 11:00,43.180515289,-70.427185059,43.18,-70.43
2006-12-15 12:00,43.180484772,-70.427131653,43.18,-70.43
2006-12-15 13:00,43.180515289,-70.427047729,43.18,-70.43
2006-12-15 14:00,43.180549622,-70.427085876,43.18,-70.43
2006-12-15 15:00,43.180465698,-70.427101135,43.18,-70.43
2006-12-15 16:00,43.180484772,-70.427032471,43.18,-70.43
2006-12-15 17:00,43.180484772,-70.426986694,43.18,-70.43
2006-12-15 18:00,43.180564880,-70.427116394,43.18,-70.43
2006-12-15 19:00,43.180515289,-70.427146912,43.18,-70.43
2006-12-15 20:00,43.180549622,-70.427230835,43.18,-70.43
2006-12-15 21:00,43.180549622,-70.427169800,43.18,-70.43
2006-12-15 22:00,43.180500031,-70.427185059,43.18,-70.43
2006-12-15 23:00,43.180515289,-70.427253723,43.18,-70.43
2006-12-16 00:00,43.180583954,-70.427169800,43.18,-70.43
2006-12-16 01:00,43.180465698,-70.427253723,43.18,-70.43
2006-12-16 02:00,43.180381775,-70.427215576,43.18,-70.43
2006-12-16 03:00,43.180515289,-70.427200317,43.18,-70.43
2006-12-16 04:00,43.180484772,-70.427200317,43.18,-70.43
2006-12-16 05:00,43.180484772,-70.427047729,43.18,-70.43
2006-12-16 06:00,43.180450439,-70.427032471,43.18,-70.43
2006-12-16 07:00,43.180400848,-70.427017212,43.18,-70.43
2006-12-16 08:00,43.180416107,-70.427017212,43.18,-70.43
2006-12-16 09:00,43.180381775,-70.427032471,43.18,-70.43
2006-12-16 10:00,43.180381775,-70.426933289,43.18,-70.43
2006-12-16 11:00,43.180282593,-70.427001953,43.18,-70.43
2006-12-16 12:00,43.180316925,-70.426963806,43.18,-70.43
2006-12-16 13:00,43.180316925,-70.427032471,43.18,-70.43
2006-12-16 14:00,43.180282593,-70.427032471,43.18,-70.43
2006-12-16 15:00,43.180282593,-70.427062988,43.18,-70.43
2006-12-16 16:00,43.180301666,-70.427062988,43.18,-70.43
2006-12-16 17:00,43.180267334,-70.426963806,43.18,-70.43
2006-12-16 18:00,43.180301666,-70.426986694,43.18,-70.43
2006-12-16 19:00,43.180366516,-70.426963806,43.18,-70.43
2006-12-16 20:00,43.180316925,-70.426986694,43.18,-70.43
2006-12-16 21:00,43.180366516,-70.426948547,43.18,-70.43
2006-12-16 22:00,43.180366516,-70.426986694,43.18,-70.43
2006-12-16 23:00,43.180351257,-70.427047729,43.18,-70.43
2006-12-17 00:00,43.180351257,-70.427047729,43.18,-70.43
2006-12-17 01:00,43.180267334,-70.427062988,43.18,-70.43
2006-12-17 02:00,43.180416107,-70.427047729,43.18,-70.43
2006-12-17 03:00,43.180381775,-70.427062988,43.18,-70.43
2006-12-17 04:00,43.180332184,-70.427032471,43.18,-70.43
2006-12-17 05:00,43.180381775,-70.427032471,43.18,-70.43
2006-12-17 06:00,43.180381775,-70.427047729,43.18,-70.43
2006-12-17 07:00,43.180450439,-70.427017212,43.18,-70.43
2006-12-17 08:00,43.180435181,-70.427032471,43.18,-70.43
2006-12-17 09:00,43.180450439,-70.427047729,43.18,-70.43
2006-12-17 10:00,43.180484772,-70.427047729,43.18,-70.43
2006-12-17 11:00,43.180465698,-70.427101135,43.18,-70.43
2006-12-17 12:00,43.180549622,-70.427085876,43.18,-70.43
2006-12-17 13:00,43.180515289,-70.427085876,43.18,-70.43
2006-12-17 14:00,43.180484772,-70.426986694,43.18,-70.43
2006-12-17 15:00,43.180549622,-70.426834106,43.18,-70.43
2006-12-17 16:00,43.180549622,-70.426849365,43.18,-70.43
2006-12-17 17:00,43.180564880,-70.426849365,43.18,-70.43
2006-12-17 18:00,43.180583954,-70.426864624,43.18,-70.43
2006-12-17 19:00,43.180633545,-70.426902771,43.18,-70.43
2006-12-17 20:00,43.180648804,-70.426933289,43.18,-70.43
2006-12-17 21:00,43.180633545,-70.426963806,43.18,-70.43
2006-12-17 22:00,43.180633545,-70.427001953,43.18,-70.43
2006-12-17 23:00,43.180648804,-70.427017212,43.18,-70.43
2006-12-18 00:00,43.180599213,-70.426963806,43.18,-70.43
2006-12-18 01:00,43.180583954,-70.427017212,43.18,-70.43
2006-12-18 02:00,43.180564880,-70.427001953,43.18,-70.43
2006-12-18 03:00,43.180618286,-70.427017212,43.18,-70.43
2006-12-18 04:00,43.180549622,-70.427017212,43.18,-70.43
2006-12-18 05:00,43.180618286,-70.426986694,43.18,-70.43
2006-12-18 06:00,43.180618286,-70.427047729,43.18,-70.43
2006-12-18 07:00,43.180599213,-70.427047729,43.18,-70.43
2006-12-18 08:00,43.180599213,-70.427001953,43.18,-70.43
2006-12-18 09:00,43.180549622,-70.427185059,43.18,-70.43
2006-12-18 10:00,43.180648804,-70.427032471,43.18,-70.43
2006-12-18 11:00,43.180564880,-70.427047729,43.18,-70.43
2006-12-18 12:00,43.180549622,-70.427032471,43.18,-70.43
2006-12-18 13:00,43.180534363,-70.427047729,43.18,-70.43
2006-12-18 14:00,43.180534363,-70.427047729,43.18,-70.43
2006-12-18 15:00,43.180515289,-70.427085876,43.18,-70.43
2006-12-18 16:00,43.180500031,-70.427062988,43.18,-70.43
2006-12-18 17:00,43.180500031,-70.427032471,43.18,-70.43
2006-12-18 18:00,43.180500031,-70.427001953,43.18,-70.43
2006-12-18 19:00,43.180549622,-70.426963806,43.18,-70.43
2006-12-18 20:00,43.180549622,-70.426986694,43.18,-70.43
2006-12-18 21:00,43.180618286,-70.426933289,43.18,-70.43
2006-12-18 22:00,43.180633545,-70.426986694,43.18,-70.43
2006-12-18 23:00,43.180633545,-70.427001953,43.18,-70.43
2006-12-19 00:00,43.180564880,-70.426918030,43.18,-70.43
2006-12-19 01:00,43.180400848,-70.426933289,43.18,-70.43
2006-12-19 02:00,43.180301666,-70.426918030,43.18,-70.43
2006-12-19 03:00,43.180282593,-70.427001953,43.18,-70.43
2006-12-19 04:00,43.180282593,-70.426948547,43.18,-70.43
2006-12-19 05:00,43.180366516,-70.426933289,43.18,-70.43
2006-12-19 06:00,43.180282593,-70.426918030,43.18,-70.43
2006-12-19 07:00,43.180282593,-70.427085876,43.18,-70.43
2006-12-19 08:00,43.180366516,-70.426902771,43.18,-70.43
2006-12-19 09:00,43.180366516,-70.426902771,43.18,-70.43
2006-12-19 10:00,43.180416107,-70.426918030,43.18,-70.43
2006-12-19 11:00,43.180416107,-70.426948547,43.18,-70.43
2006-12-19 12:00,43.180465698,-70.426918030,43.18,-70.43
2006-12-19 13:00,43.180435181,-70.426902771,43.18,-70.43
2006-12-19 14:00,43.180381775,-70.426948547,43.18,-70.43
2006-12-19 15:00,43.180248260,-70.427047729,43.18,-70.43
2006-12-19 16:00,43.180267334,-70.427017212,43.18,-70.43
2006-12-19 17:00,43.180316925,-70.426963806,43.18,-70.43
2006-12-19 18:00,43.180400848,-70.426948547,43.18,-70.43
2006-12-19 19:00,43.180366516,-70.426902771,43.18,-70.43
2006-12-19 20:00,43.180316925,-70.426918030,43.18,-70.43
2006-12-19 21:00,43.180316925,-70.426918030,43.18,-70.43
2006-12-19 22:00,43.180366516,-70.426902771,43.18,-70.43
2006-12-19 23:00,43.180366516,-70.426864624,43.18,-70.43
2006-12-20 00:00,43.180332184,-70.426918030,43.17,-70.42
2006-12-20 01:00,43.180301666,-70.426963806,43.18,-70.43
2006-12-20 02:00,43.180301666,-70.427001953,43.18,-70.43
2006-12-20 03:00,43.180301666,-70.427032471,43.18,-70.43
2006-12-20 04:00,43.180316925,-70.427001953,43.18,-70.43
2006-12-20 05:00,43.180332184,-70.427062988,43.18,-70.43
2006-12-20 06:00,43.180366516,-70.426933289,43.18,-70.43
2006-12-20 07:00,43.180351257,-70.426986694,43.18,-70.43
2006-12-20 08:00,43.180366516,-70.426879883,43.18,-70.43
2006-12-20 09:00,43.180400848,-70.426918030,43.18,-70.43
2006-12-20 10:00,43.180381775,-70.426902771,43.18,-70.43
2006-12-20 11:00,43.180381775,-70.426963806,43.18,-70.43
2006-12-20 12:00,43.180416107,-70.426933289,43.18,-70.43
2006-12-20 13:00,43.180381775,-70.426963806,43.18,-70.43
2006-12-20 14:00,43.180381775,-70.426948547,43.18,-70.43
2006-12-20 15:00,43.180366516,-70.427017212,43.18,-70.43
2006-12-20 16:00,43.180351257,-70.427032471,43.18,-70.43
2006-12-20 17:00,43.180381775,-70.427047729,43.18,-70.43
2006-12-20 18:00,43.180416107,-70.427062988,43.18,-70.43
2006-12-20 19:00,43.180484772,-70.427047729,43.18,-70.43
2006-12-20 20:00,43.180500031,-70.427001953,43.18,-70.43
2006-12-20 21:00,43.180599213,-70.426948547,43.18,-70.43
2006-12-20 22:00,43.180534363,-70.426948547,43.18,-70.43
2006-12-20 23:00,43.180683136,-70.426986694,43.18,-70.43
2006-12-21 00:00,43.180683136,-70.427017212,43.18,-70.43
2006-12-21 01:00,43.180717468,-70.426963806,43.18,-70.43
2006-12-21 02:00,43.180767059,-70.426780701,43.18,-70.43
2006-12-21 03:00,43.180801392,-70.426780701,43.18,-70.43
2006-12-21 04:00,43.180782318,-70.426750183,43.18,-70.43
2006-12-21 05:00,43.180767059,-70.426651001,43.18,-70.43
2006-12-21 06:00,43.180732727,-70.426719666,43.18,-70.43
2006-12-21 07:00,43.180717468,-70.426734924,43.18,-70.43
2006-12-21 08:00,43.180767059,-70.426719666,43.18,-70.43
2006-12-21 09:00,43.180801392,-70.426750183,43.18,-70.43
2006-12-21 10:00,43.180751801,-70.426765442,43.18,-70.43
2006-12-21 11:00,43.180782318,-70.426765442,43.18,-70.43
2006-12-21 12:00,43.180801392,-70.426818848,43.18,-70.43
2006-12-21 13:00,43.180782318,-70.426818848,43.18,-70.43
2006-12-21 14:00,43.180767059,-70.426902771,43.18,-70.43
2006-12-21 15:00,43.180732727,-70.426864624,43.18,-70.43
2006-12-21 16:00,43.180698395,-70.426864624,43.18,-70.43
2006-12-21 17:00,43.180717468,-70.426902771,43.18,-70.43
2006-12-21 18:00,43.180648804,-70.426902771,43.18,-70.43
2006-12-21 19:00,43.180564880,-70.426818848,43.18,-70.43
2006-12-21 20:00,43.180583954,-70.426734924,43.18,-70.43
2006-12-21 21:00,43.180618286,-70.426734924,43.18,-70.43
2006-12-21 22:00,43.180633545,-70.426818848,43.18,-70.43
2006-12-21 23:00,43.180618286,-70.426834106,43.18,-70.43
2006-12-22 00:00,43.180599213,-70.426734924,43.18,-70.43
2006-12-22 01:00,43.180549622,-70.426803589,43.18,-70.43
2006-12-22 02:00,43.180583954,-70.426818848,43.18,-70.43
2006-12-22 03:00,43.180549622,-70.426834106,43.18,-70.43
2006-12-22 04:00,43.180583954,-70.426849365,43.18,-70.43
2006-12-22 05:00,43.180583954,-70.426864624,43.18,-70.43
2006-12-22 06:00,43.180564880,-70.426864624,43.18,-70.43
2006-12-22 07:00,43.180484772,-70.426902771,43.18,-70.43
2006-12-22 08:00,43.180435181,-70.426948547,43.18,-70.43
2006-12-22 09:00,43.180484772,-70.426948547,43.18,-70.43
2006-12-22 10:00,43.180500031,-70.427047729,43.18,-70.43
2006-12-22 11:00,43.180484772,-70.427047729,43.18,-70.43
2006-12-22 12:00,43.180534363,-70.427116394,43.18,-70.43
2006-12-22 13:00,43.180599213,-70.427185059,43.18,-70.43
2006-12-22 14:00,43.180564880,-70.427368164,43.18,-70.43
2006-12-22 15:00,43.180599213,-70.427330017,43.18,-70.43
2006-12-22 16:00,43.180599213,-70.427299500,43.18,-70.43
2006-12-22 17:00,43.180549622,-70.427268982,43.18,-70.43
2006-12-22 18:00,43.180564880,-70.427230835,43.18,-70.43
2006-12-22 19:00,43.180583954,-70.427215576,43.18,-70.43
2006-12-22 20:00,43.180648804,-70.427253723,43.18,-70.43
2006-12-22 21:00,43.180633545,-70.427185059,43.18,-70.43
2006-12-22 22:00,43.180698395,-70.427200317,43.18,-70.43
2006-12-22 23:00,43.180698395,-70.427200317,43.18,-70.43
2006-12-23 00:00,43.180698395,-70.427185059,43.18,-70.43
2006-12-23 01:00,43.180698395,-70.427146912,43.18,-70.43
2006-12-23 02:00,43.180732727,-70.427131653,43.18,-70.43
2006-12-23 03:00,43.180732727,-70.427047729,43.18,-70.43
2006-12-23 04:00,43.180767059,-70.427032471,43.18,-70.43
2006-12-23 05:00,43.180717468,-70.427085876,43.18,-70.43
2006-12-23 06:00,43.180751801,-70.427101135,43.18,-70.43
2006-12-23 07:00,43.180767059,-70.427047729,43.18,-70.43
2006-12-23 08:00,43.180831909,-70.427032471,43.18,-70.43
2006-12-23 09:00,43.180767059,-70.427001953,43.18,-70.43
2006-12-23 10:00,43.180751801,-70.426963806,43.18,-70.43
2006-12-23 11:00,43.180801392,-70.427116394,43.18,-70.43
2006-12-23 12:00,43.180801392,-70.427169800,43.18,-70.43
2006-12-23 13:00,43.180816650,-70.427200317,43.17,-70.42
2006-12-23 14:00,43.180881500,-70.427299500,43.18,-70.43
2006-12-23 15:00,43.180881500,-70.427368164,43.18,-70.43
2006-12-23 16:00,43.180900574,-70.427352905,43.18,-70.43
2006-12-23 17:00,43.180915833,-70.427230835,43.18,-70.43
2006-12-23 18:00,43.180850983,-70.427230835,43.18,-70.43
2006-12-23 19:00,43.180950165,-70.427215576,43.18,-70.43
2006-12-23 20:00,43.180801392,-70.427017212,43.18,-70.43
2006-12-23 21:00,43.180751801,-70.426933289,43.18,-70.43
2006-12-23 22:00,43.180564880,-70.426803589,43.18,-70.43
2006-12-23 23:00,43.180583954,-70.426750183,43.18,-70.43
2006-12-24 00:00,43.180648804,-70.426750183,43.18,-70.43
2006-12-24 01:00,43.180599213,-70.426818848,43.18,-70.43
2006-12-24 02:00,43.180618286,-70.426803589,43.18,-70.43
2006-12-24 03:00,43.180633545,-70.426803589,43.18,-70.43
2006-12-24 04:00,43.180683136,-70.426834106,43.18,-70.43
2006-12-24 05:00,43.180698395,-70.426948547,43.18,-70.43
2006-12-24 06:00,43.180717468,-70.426948547,43.18,-70.43
2006-12-24 07:00,43.180732727,-70.426864624,43.18,-70.43
2006-12-24 08:00,43.180751801,-70.426879883,43.18,-70.43
2006-12-24 09:00,43.180732727,-70.426849365,43.18,-70.43
2006-12-24 10:00,43.180767059,-70.426879883,43.18,-70.43
2006-12-24 11:00,43.180732727,-70.426834106,43.18,-70.43
2006-12-24 12:00,43.180816650,-70.426834106,43.18,-70.43
2006-12-24 13:00,43.180801392,-70.426864624,43.18,-70.43
2006-12-24 14:00,43.180801392,-70.426933289,43.18,-70.43
2006-12-24 15:00,43.180801392,-70.426933289,43.18,-70.43
2006-12-24 16:00,43.180782318,-70.426948547,43.18,-70.43
2006-12-24 17:00,43.180751801,-70.426879883,43.18,-70.43
2006-12-24 18:00,43.180648804,-70.426834106,43.18,-70.43
2006-12-24 19:00,43.180618286,-70.426818848,43.18,-70.43
2006-12-24 20:00,43.180549622,-70.426834106,43.18,-70.43
2006-12-24 21:00,43.180515289,-70.426750183,43.18,-70.43
2006-12-24 22:00,43.180435181,-70.426765442,43.18,-70.43
2006-12-24 23:00,43.180534363,-70.426849365,43.18,-70.43
2006-12-25 00:00,43.180534363,-70.426834106,43.18,-70.43
2006-12-25 01:00,43.180583954,-70.426834106,43.18,-70.43
2006-12-25 02:00,43.180618286,-70.426818848,43.18,-70.43
2006-12-25 03:00,43.180648804,-70.426864624,43.18,-70.43
2006-12-25 04:00,43.180732727,-70.426651001,43.18,-70.43
2006-12-25 05:00,43.180717468,-70.426818848,43.18,-70.43
2006-12-25 06:00,43.180667877,-70.426818848,43.18,-70.43
2006-12-25 07:00,43.180633545,-70.426780701,43.18,-70.43
2006-12-25 08:00,43.180683136,-70.426780701,43.18,-70.43
2006-12-25 09:00,43.180648804,-70.426750183,43.18,-70.43
2006-12-25 10:00,43.180618286,-70.426734924,43.18,-70.43
2006-12-25 11:00,43.180583954,-70.426765442,43.18,-70.43
2006-12-25 12:00,43.180583954,-70.426780701,43.18,-70.43
2006-12-25 13:00,43.180583954,-70.426818848,43.18,-70.43
2006-12-25 14:00,43.180534363,-70.426879883,43.18,-70.43
2006-12-25 15:00,43.180599213,-70.426902771,43.18,-70.43
2006-12-25 16:00,43.180648804,-70.426864624,43.18,-70.43
2006-12-25 17:00,43.180648804,-70.426918030,43.18,-70.43
2006-12-25 18:00,43.180667877,-70.426864624,43.18,-70.43
2006-12-25 19:00,43.180683136,-70.426918030,43.18,-70.43
2006-12-25 20:00,43.180648804,-70.426879883,43.18,-70.43
2006-12-25 21:00,43.180648804,-70.426834106,43.18,-70.43
2006-12-25 22:00,43.180648804,-70.426918030,43.18,-70.43
2006-12-25 23:00,43.180717468,-70.426902771,43.18,-70.43
2006-12-26 00:00,43.180667877,-70.426879883,43.18,-70.43
2006-12-26 01:00,43.180717468,-70.426918030,43.18,-70.43
2006-12-26 02:00,43.180683136,-70.426933289,43.18,-70.43
2006-12-26 03:00,43.180732727,-70.426948547,43.18,-70.43
2006-12-26 04:00,43.180717468,-70.426933289,43.18,-70.43
2006-12-26 05:00,43.180751801,-70.426918030,43.18,-70.43
2006-12-26 06:00,43.180698395,-70.426986694,43.18,-70.43
2006-12-26 07:00,43.180667877,-70.427001953,43.17,-70.42
2006-12-26 08:00,43.180648804,-70.427146912,43.18,-70.43
2006-12-26 09:00,43.180633545,-70.427268982,43.18,-70.43
2006-12-26 10:00,43.180618286,-70.427284241,43.18,-70.43
2006-12-26 11:00,43.180648804,-70.427314758,43.18,-70.43
2006-12-26 12:00,43.180732727,-70.427330017,43.18,-70.43
2006-12-26 13:00,43.180782318,-70.427497864,43.18,-70.43
2006-12-26 14:00,43.180782318,-70.427551270,43.18,-70.43
2006-12-26 15:00,43.180782318,-70.427513123,43.18,-70.43
2006-12-26 16:00,43.180751801,-70.427497864,43.18,-70.43
2006-12-26 17:00,43.180767059,-70.427452087,43.18,-70.43
2006-12-26 18:00,43.180732727,-70.427368164,43.18,-70.43
2006-12-26 19:00,43.180534363,-70.427169800,43.18,-70.43
2006-12-26 20:00,43.180534363,-70.427101135,43.18,-70.43
2006-12-26 21:00,43.180515289,-70.427085876,43.18,-70.43
2006-12-26 22:00,43.180484772,-70.427101135,43.18,-70.43
2006-12-26 23:00,43.180500031,-70.427032471,43.18,-70.43
2006-12-27 00:00,43.180484772,-70.427032471,43.18,-70.43
2006-12-27 01:00,43.180500031,-70.427001953,43.18,-70.43
2006-12-27 02:00,43.180534363,-70.427001953,43.18,-70.43
2006-12-27 03:00,43.180534363,-70.427017212,43.18,-70.43
2006-12-27 04:00,43.180534363,-70.426986694,43.18,-70.43
2006-12-27 05:00,43.180549622,-70.427032471,43.18,-70.43
2006-12-27 06:00,43.180564880,-70.427032471,43.18,-70.43
2006-12-27 07:00,43.180515289,-70.427047729,43.18,-70.43
2006-12-27 08:00,43.180500031,-70.427047729,43.18,-70.43
2006-12-27 09:00,43.180484772,-70.427001953,43.18,-70.43
2006-12-27 10:00,43.180351257,-70.427085876,43.18,-70.43
2006-12-27 11:00,43.180267334,-70.426986694,43.18,-70.43
2006-12-27 12:00,43.180233002,-70.427001953,43.18,-70.43
2006-12-27 13:00,43.180217743,-70.427032471,43.18,-70.43
2006-12-27 14:00,43.180267334,-70.426986694,43.18,-70.43
2006-12-27 15:00,43.180267334,-70.427047729,43.18,-70.43
2006-12-27 16:00,43.180282593,-70.427101135,43.18,-70.43
2006-12-27 17:00,43.180351257,-70.427101135,43.18,-70.43
2006-12-27 18:00,43.180366516,-70.427001953,43.18,-70.43
2006-12-27 19:00,43.180366516,-70.426902771,43.18,-70.43
2006-12-27 20:00,43.180435181,-70.426849365,43.18,-70.43
2006-12-27 21:00,43.180351257,-70.426818848,43.18,-70.43
2006-12-27 22:00,43.180332184,-70.426834106,43.18,-70.43
2006-12-27 23:00,43.180366516,-70.426849365,43.18,-70.43
2006-12-28 00:00,43.180316925,-70.426849365,43.18,-70.43
2006-12-28 01:00,43.180332184,-70.426818848,43.18,-70.43
2006-12-28 02:00,43.180301666,-70.426849365,43.18,-70.43
2006-12-28 03:00,43.180332184,-70.426849365,43.18,-70.43
2006-12-28 04:00,43.180332184,-70.426834106,43.18,-70.43
2006-12-28 05:00,43.180332184,-70.426879883,43.18,-70.43
2006-12-28 06:00,43.180301666,-70.426849365,43.18,-70.43
2006-12-28 07:00,43.180332184,-70.426902771,43.18,-70.43
2006-12-28 08:00,43.180416107,-70.426918030,43.18,-70.43
2006-12-28 09:00,43.180484772,-70.426902771,43.18,-70.43
2006-12-28 10:00,43.180450439,-70.426879883,43.18,-70.43
2006-12-28 11:00,43.180500031,-70.426879883,43.18,-70.43
2006-12-28 12:00,43.180515289,-70.426864624,43.18,-70.43
2006-12-28 13:00,43.180534363,-70.426803589,43.18,-70.43
2006-12-28 14:00,43.180549622,-70.426765442,43.18,-70.43
2006-12-28 15:00,43.180515289,-70.426818848,43.18,-70.43
2006-12-28 16:00,43.180549622,-70.426734924,43.18,-70.43
2006-12-28 17:00,43.180534363,-70.426803589,43.18,-70.43
2006-12-28 18:00,43.180515289,-70.426879883,43.18,-70.43
2006-12-28 19:00,43.180400848,-70.426879883,43.18,-70.43
2006-12-28 20:00,43.180484772,-70.426864624,43.18,-70.43
2006-12-28 21:00,43.180366516,-70.426902771,43.18,-70.43
2006-12-28 22:00,43.180316925,-70.426918030,43.18,-70.43
2006-12-28 23:00,43.180400848,-70.426879883,43.18,-70.43
2006-12-29 00:00,43.180316925,-70.426963806,43.18,-70.43
2006-12-29 01:00,43.180316925,-70.426963806,43.17,-70.42
2006-12-29 02:00,43.180233002,-70.426879883,43.18,-70.43
2006-12-29 03:00,43.180316925,-70.426902771,43.18,-70.43
2006-12-29 04:00,43.180332184,-70.426849365,43.18,-70.43
2006-12-29 05:00,43.180332184,-70.426933289,43.18,-70.43
2006-12-29 06:00,43.180366516,-70.426933289,43.18,-70.43
2006-12-29 07:00,43.180332184,-70.426963806,43.18,-70.43
2006-12-29 08:00,43.180332184,-70.427001953,43.18,-70.43
2006-12-29 09:00,43.180332184,-70.427032471,43.18,-70.43
2006-12-29 10:00,43.180316925,-70.427085876,43.18,-70.43
2006-12-29 11:00,43.180301666,-70.427101135,43.18,-70.43
2006-12-29 12:00,43.180301666,-70.427101135,43.18,-70.43
2006-12-29 13:00,43.180282593,-70.427047729,43.18,-70.43
2006-12-29 14:00,43.180282593,-70.427116394,43.18,-70.43
2006-12-29 15:00,43.180267334,-70.427062988,43.18,-70.43
2006-12-29 16:00,43.180282593,-70.427047729,43.18,-70.43
2006-12-29 17:00,43.180217743,-70.427047729,43.18,-70.43
2006-12-29 18:00,43.180267334,-70.427062988,43.18,-70.43
2006-12-29 19:00,43.180301666,-70.427116394,43.18,-70.43
2006-12-29 20:00,43.180316925,-70.427101135,43.18,-70.43
2006-12-29 21:00,43.180316925,-70.427101135,43.18,-70.43
2006-12-29 22:00,43.180301666,-70.427131653,43.18,-70.43
2006-12-29 23:00,43.180168152,-70.427185059,43.18,-70.43
2006-12-30 00:00,43.180301666,-70.427101135,43.18,-70.43
2006-12-30 01:00,43.180248260,-70.427047729,43.18,-70.43
2006-12-30 02:00,43.180248260,-70.427062988,43.18,-70.43
2006-12-30 03:00,43.180267334,-70.427047729,43.18,-70.43
2006-12-30 04:00,43.180366516,-70.426986694,43.18,-70.43
2006-12-30 05:00,43.180351257,-70.427047729,43.18,-70.43
2006-12-30 06:00,43.180366516,-70.427101135,43.18,-70.43
2006-12-30 07:00,43.180366516,-70.427062988,43.18,-70.43
2006-12-30 08:00,43.180381775,-70.427062988,43.18,-70.43
2006-12-30 09:00,43.180416107,-70.427001953,43.18,-70.43
2006-12-30 10:00,43.180400848,-70.427001953,43.18,-70.43
2006-12-30 11:00,43.180515289,-70.426933289,43.18,-70.43
2006-12-30 12:00,43.180484772,-70.426963806,43.18,-70.43
2006-12-30 13:00,43.180484772,-70.426864624,43.18,-70.43
2006-12-30 14:00,43.180515289,-70.426902771,43.18,-70.43
2006-12-30 15:00,43.180450439,-70.426879883,43.18,-70.43
2006-12-30 16:00,43.180500031,-70.426864624,43.18,-70.43
2006-12-30 17:00,43.180564880,-70.426918030,43.18,-70.43
2006-12-30 18:00,43.180534363,-70.426933289,43.18,-70.43
2006-12-30 19:00,43.180534363,-70.426948547,43.18,-70.43
2006-12-30 20:00,43.180549622,-70.426864624,43.18,-70.43
2006-12-30 21:00,43.180534363,-70.426948547,43.18,-70.43
2006-12-30 22:00,43.180549622,-70.427047729,43.18,-70.43
2006-12-30 23:00,43.180534363,-70.426902771,43.18,-70.43
2006-12-31 00:00,43.180351257,-70.426902771,43.18,-70.43
2006-12-31 01:00,43.180248260,-70.426879883,43.18,-70.43
2006-12-31 02:00,43.180316925,-70.427047729,43.18,-70.43
2006-12-31 03:00,43.180248260,-70.426986694,43.18,-70.43
2006-12-31 04:00,43.180267334,-70.426963806,43.18,-70.43
2006-12-31 05:00,43.180332184,-70.426933289,43.18,-70.43
2006-12-31 06:00,43.180282593,-70.426879883,43.18,-70.43
2006-12-31 07:00,43.180332184,-70.426902771,43.18,-70.43
2006-12-31 08:00,43.180267334,-70.427047729,43.18,-70.43
2006-12-31 09:00,43.180351257,-70.426933289,43.18,-70.43
2006-12-31 10:00,43.180351257,-70.426986694,43.18,-70.43
2006-12-31 11:00,43.180416107,-70.426963806,43.18,-70.43
2006-12-31 12:00,43.180366516,-70.426948547,43.18,-70.43
2006-12-31 13:00,43.180301666,-70.426986694,43.18,-70.43
2006-12-31 14:00,43.180332184,-70.426963806,43.18,-70.43
2006-12-31 15:00,43.180301666,-70.426986694,43.18,-70.43
2006-12-31 16:00,43.180332184,-70.426933289,43.18,-70.43
2006-12-31 17:00,43.180366516,-70.426986694,43.18,-70.43
2006-12-31 18:00,43.180400848,-70.427001953,43.18,-70.43
2006-12-31 19:00,43.180416107,-70.427001953,43.18,-70.43
2006-12-31 20:00,43.180450439,-70.426963806,43.18,-70.43
2006-12-31 21:00,43.180416107,-70.426986694,43.18,-70.43
2006-12-31 22:00,43.180465698,-70.427001953,43.18,-70.43
2006-12-31 23:00,43.180435181,-70.426963806,43.18,-70.43
2007-01-01 00:00,43.180381775,-70.427017212,43.18,-70.43
2007-01-01 01:00,43.180366516,-70.427017212,43.18,-70.43
2007-01-01 02:00,43.180400848,-70.427047729,43.18,-70.43
2007-01-01 03:00,43.180381775,-70.427085876,43.18,-70.43
2007-01-01 04:00,43.180400848,-70.427062988,43.18,-70.43
2007-01-01 05:00,43.180465698,-70.427062988,43.18,-70.43
2007-01-01 06:00,43.180416107,-70.427047729,43.18,-70.43
2007-01-01 07:00,43.180416107,-70.427047729,43.18,-70.43
2007-01-01 08:00,43.180534363,-70.427101135,43.18,-70.43